When you browse on this site, cookies collect data to enhance your experience and personalize the content and advertising you see.
Visit our Privacy Policy to learn more. By continuing to use the site, you agree to this use of cookies and data.
  • In Austria
  • List of Countries
  • For 7 days
  • Water Temperature
  • Satellite Maps
  • Weather Map
  • News
  • Weather Widgets
  • user-avatar
    Login

    Hourly Weather Baraki Barak

    Today, 24 April, Wednesday

    Time Temperature Precipitation Wind Pressure Humidity
    00:00 +15°C° 0.3 mm 2 mps 598 mmHg 65%
    01:00 +15°C° 0.3 mm 2 mps 598 mmHg 67%
    02:00 +15°C° 0.3 mm 1 mps 598 mmHg 69%
    03:00 +14°C° 0.4 mm 1 mps 598 mmHg 69%
    04:00 +14°C° 0.4 mm 2 mps 598 mmHg 70%
    05:00 +14°C° 0.4 mm 2 mps 598 mmHg 71%
    06:00 +14°C° 0.3 mm 2 mps 598 mmHg 68%
    07:00 +15°C° 0.3 mm 2 mps 598 mmHg 64%
    08:00 +15°C° 0.3 mm 2 mps 598 mmHg 61%
    09:00 +17°C° 0 mm 3 mps 599 mmHg 54%
    10:00 +19°C° 0 mm 4 mps 599 mmHg 47%
    11:00 +20°C° 0 mm 5 mps 600 mmHg 39%
    12:00 +21°C° 0.1 mm 6 mps 600 mmHg 34%
    13:00 +22°C° 0.1 mm 8 mps 600 mmHg 30%
    14:00 +23°C° 0.1 mm 9 mps 600 mmHg 25%
    15:00 +23°C° 0 mm 10 mps 600 mmHg 24%
    16:00 +23°C° 0 mm 10 mps 599 mmHg 22%
    17:00 +23°C° 0 mm 11 mps 599 mmHg 21%
    18:00 +22°C° 0 mm 9 mps 599 mmHg 24%
    19:00 +20°C° 0 mm 8 mps 599 mmHg 28%
    20:00 +19°C° 0 mm 6 mps 599 mmHg 31%
    21:00 +17°C° 0 mm 5 mps 598 mmHg 34%
    22:00 +17°C° 0 mm 4 mps 598 mmHg 37%
    23:00 +16°C° 0 mm 3 mps 598 mmHg 41%

    Tomorrow, 25 April, Thursday

    Time Temperature Precipitation Wind Pressure Humidity
    00:00 +14°C° 0 mm 3 mps 598 mmHg 44%
    01:00 +14°C° 0 mm 2 mps 597 mmHg 47%
    02:00 +13°C° 0 mm 2 mps 597 mmHg 50%
    03:00 +13°C° 0 mm 2 mps 597 mmHg 51%
    04:00 +12°C° 0 mm 2 mps 597 mmHg 52%
    05:00 +12°C° 0 mm 1 mps 596 mmHg 53%
    06:00 +12°C° 0 mm 2 mps 597 mmHg 47%
    07:00 +13°C° 0 mm 2 mps 598 mmHg 42%
    08:00 +14°C° 0 mm 2 mps 599 mmHg 37%
    09:00 +15°C° 0 mm 2 mps 599 mmHg 32%
    10:00 +16°C° 0 mm 3 mps 600 mmHg 28%
    11:00 +17°C° 0 mm 3 mps 600 mmHg 23%
    12:00 +18°C° 0 mm 4 mps 600 mmHg 21%
    13:00 +19°C° 0 mm 5 mps 600 mmHg 20%
    14:00 +20°C° 0 mm 7 mps 600 mmHg 18%
    15:00 +21°C° 0 mm 8 mps 600 mmHg 18%
    16:00 +21°C° 0 mm 9 mps 600 mmHg 18%
    17:00 +21°C° 0 mm 10 mps 600 mmHg 18%
    18:00 +18°C° 0 mm 8 mps 600 mmHg 21%
    19:00 +17°C° 0 mm 6 mps 599 mmHg 24%
    20:00 +16°C° 0 mm 5 mps 599 mmHg 28%
    21:00 +15°C° 0 mm 4 mps 599 mmHg 31%
    22:00 +14°C° 0 mm 3 mps 599 mmHg 34%
    23:00 +14°C° 0 mm 2 mps 599 mmHg 37%

    Day after tomorrow, 26 April, Friday

    Time Temperature Precipitation Wind Pressure Humidity
    00:00 +14°C° 0 mm 2 mps 599 mmHg 39%
    01:00 +13°C° 0 mm 2 mps 598 mmHg 40%
    02:00 +12°C° 0 mm 1 mps 598 mmHg 42%
    03:00 +12°C° 0 mm 1 mps 597 mmHg 43%
    04:00 +11°C° 0 mm 1 mps 597 mmHg 43%
    05:00 +11°C° 0 mm 1 mps 597 mmHg 44%
    06:00 +12°C° 0 mm 1 mps 598 mmHg 39%
    07:00 +12°C° 0 mm 1 mps 598 mmHg 35%
    08:00 +13°C° 0 mm 1 mps 599 mmHg 30%
    09:00 +15°C° 0 mm 1 mps 599 mmHg 27%
    10:00 +16°C° 0 mm 1 mps 600 mmHg 25%
    11:00 +18°C° 0 mm 1 mps 600 mmHg 22%
    12:00 +18°C° 0 mm 2 mps 600 mmHg 20%
    13:00 +19°C° 0 mm 2 mps 600 mmHg 18%
    14:00 +20°C° 0 mm 3 mps 600 mmHg 16%
    15:00 +20°C° 0 mm 4 mps 600 mmHg 15%
    16:00 +21°C° 0 mm 4 mps 600 mmHg 15%
    17:00 +21°C° 0 mm 5 mps 600 mmHg 14%
    18:00 +20°C° 0 mm 4 mps 600 mmHg 18%
    19:00 +19°C° 0 mm 3 mps 600 mmHg 21%
    20:00 +18°C° 0 mm 2 mps 600 mmHg 25%
    21:00 +17°C° 0 mm 2 mps 600 mmHg 27%
    22:00 +16°C° 0 mm 2 mps 600 mmHg 30%
    23:00 +15°C° 0 mm 2 mps 600 mmHg 32%

    27 April, Saturday

    Time Temperature Precipitation Wind Pressure Humidity
    00:00 +14°C° 0 mm 2 mps 599 mmHg 34%
    01:00 +14°C° 0 mm 1 mps 599 mmHg 35%
    02:00 +13°C° 0 mm 1 mps 598 mmHg 37%
    03:00 +13°C° 0 mm 1 mps 598 mmHg 38%
    04:00 +12°C° 0 mm 1 mps 598 mmHg 39%
    05:00 +12°C° 0 mm 1 mps 598 mmHg 39%
    06:00 +12°C° 0 mm 1 mps 598 mmHg 35%
    07:00 +13°C° 0 mm 1 mps 599 mmHg 31%
    08:00 +14°C° 0 mm 1 mps 599 mmHg 27%
    09:00 +15°C° 0 mm 1 mps 600 mmHg 25%
    10:00 +16°C° 0 mm 1 mps 600 mmHg 23%
    11:00 +18°C° 0 mm 1 mps 600 mmHg 21%
    12:00 +19°C° 0 mm 2 mps 600 mmHg 20%
    13:00 +20°C° 0 mm 3 mps 600 mmHg 19%
    14:00 +21°C° 0 mm 4 mps 600 mmHg 18%
    15:00 +21°C° 0 mm 5 mps 600 mmHg 18%
    16:00 +21°C° 0 mm 5 mps 600 mmHg 18%
    17:00 +21°C° 0 mm 6 mps 600 mmHg 18%
    18:00 +20°C° 0 mm 5 mps 599 mmHg 22%
    19:00 +19°C° 0 mm 4 mps 599 mmHg 26%
    20:00 +18°C° 0 mm 3 mps 599 mmHg 29%
    21:00 +17°C° 0 mm 3 mps 599 mmHg 33%
    22:00 +16°C° 0 mm 2 mps 599 mmHg 36%
    23:00 +15°C° 0 mm 2 mps 599 mmHg 39%

    28 April, Sunday

    Time Temperature Precipitation Wind Pressure Humidity
    00:00 +14°C° 0 mm 2 mps 598 mmHg 40%
    01:00 +14°C° 0 mm 2 mps 598 mmHg 42%
    02:00 +13°C° 0 mm 1 mps 597 mmHg 43%
    03:00 +13°C° 0 mm 1 mps 597 mmHg 44%
    04:00 +12°C° 0 mm 1 mps 597 mmHg 45%
    05:00 +12°C° 0 mm 1 mps 597 mmHg 46%
    06:00 +12°C° 0 mm 1 mps 597 mmHg 41%
    07:00 +13°C° 0 mm 1 mps 598 mmHg 36%
    08:00 +13°C° 0 mm 0 mps 598 mmHg 31%
    09:00 +15°C° 0 mm 1 mps 599 mmHg 28%
    10:00 +18°C° 0 mm 1 mps 599 mmHg 25%
    11:00 +19°C° 0 mm 1 mps 600 mmHg 23%
    12:00 +19°C° 0 mm 2 mps 600 mmHg 21%
    13:00 +20°C° 0 mm 2 mps 599 mmHg 19%
    14:00 +21°C° 0 mm 3 mps 599 mmHg 17%
    15:00 +21°C° 0 mm 4 mps 599 mmHg 17%
    16:00 +21°C° 0 mm 4 mps 599 mmHg 17%
    17:00 +22°C° 0 mm 5 mps 599 mmHg 16%
    18:00 +21°C° 0 mm 4 mps 599 mmHg 19%
    19:00 +20°C° 0 mm 3 mps 599 mmHg 22%
    20:00 +19°C° 0 mm 2 mps 599 mmHg 24%
    21:00 +18°C° 0 mm 2 mps 599 mmHg 27%
    22:00 +17°C° 0 mm 2 mps 599 mmHg 29%
    23:00 +17°C° 0 mm 2 mps 599 mmHg 31%

    29 April, Monday

    Time Temperature Precipitation Wind Pressure Humidity
    00:00 +16°C° 0 mm 2 mps 598 mmHg 33%
    01:00 +15°C° 0 mm 2 mps 598 mmHg 35%
    02:00 +14°C° 0 mm 1 mps 597 mmHg 36%
    03:00 +14°C° 0 mm 1 mps 597 mmHg 37%
    04:00 +13°C° 0 mm 1 mps 596 mmHg 38%
    05:00 +12°C° 0 mm 1 mps 596 mmHg 39%
    06:00 +13°C° 0 mm 1 mps 597 mmHg 35%
    07:00 +14°C° 0 mm 1 mps 597 mmHg 31%
    08:00 +15°C° 0 mm 1 mps 598 mmHg 27%
    09:00 +18°C° 0 mm 1 mps 598 mmHg 24%
    10:00 +19°C° 0 mm 1 mps 599 mmHg 21%
    11:00 +19°C° 0 mm 2 mps 599 mmHg 19%
    12:00 +20°C° 0 mm 3 mps 599 mmHg 17%
    13:00 +21°C° 0 mm 4 mps 599 mmHg 16%
    14:00 +21°C° 0 mm 5 mps 599 mmHg 15%
    15:00 +21°C° 0 mm 5 mps 599 mmHg 16%
    16:00 +21°C° 0 mm 4 mps 598 mmHg 17%
    17:00 +20°C° 0 mm 4 mps 598 mmHg 19%
    18:00 +19°C° 0 mm 3 mps 598 mmHg 22%
    19:00 +19°C° 0 mm 3 mps 598 mmHg 26%
    20:00 +18°C° 0 mm 2 mps 598 mmHg 29%
    21:00 +17°C° 0 mm 2 mps 597 mmHg 32%
    22:00 +16°C° 0 mm 2 mps 597 mmHg 35%
    23:00 +15°C° 0 mm 2 mps 597 mmHg 38%
    Show more